WD6AWP Weather Reports


time (UTC)temp
C
wind
direction
speed
KPH
gust
KPH
rain 1hr
cm
rain 24hr
cm
rain mn
cm
humidity
%
barometer
mb
20260901140017 20 306 1.6 8.0 0.00 0.00 0.00 86 1014.8
20260901134515 20 327 0.0 0.0 0.00 0.00 0.00 87 1014.5
20260901133015 20 327 3.2 8.0 0.00 0.00 0.00 87 1014.3
20260901131517 20 319 3.2 8.0 0.00 0.00 0.00 87 1014.2
20260901130014 20 311 0.0 0.0 0.00 0.00 0.00 88 1014.1
20260901124533 20 332 0.0 6.4 0.00 0.00 0.00 88 1014.1
20260901123013 20 360 0.0 4.8 0.00 0.00 0.00 88 1014.0
20260901121512 19 18 0.0 0.0 0.00 0.00 0.00 89 1013.9
20260901120011 19 12 0.0 1.6 0.00 0.00 0.00 90 1013.9
20260901114511 19 14 3.2 9.7 0.00 0.00 0.00 91 1013.7
20260901113010 19 27 3.2 6.4 0.00 0.00 0.00 91 1013.8
20260901111510 18 5 0.0 0.0 0.00 0.00 0.00 91 1014.0
20260901110009 18 5 1.6 4.8 0.00 0.00 0.00 92 1014.1
20260901104509 18 279 0.0 0.0 0.00 0.00 0.00 92 1014.2
20260901103007 18 279 0.0 0.0 0.00 0.00 0.00 92 1014.2
20260901101507 18 279 0.0 0.0 0.00 0.00 0.00 91 1014.1
20260901100005 18 278 0.0 0.0 0.00 0.00 0.00 91 1014.1
20260901094506 18 278 0.0 0.0 0.00 0.00 0.00 91 1014.1
20260901093002 18 278 0.0 0.0 0.00 0.00 0.00 91 1014.2
20260901091618 19 278 0.0 0.0 0.00 0.00 0.00 90 1014.0
20260901090105 19 279 0.0 0.0 0.00 0.00 0.00 90 1014.0
20260901084607 19 279 0.0 0.0 0.00 0.00 0.00 90 1014.0
20260901083104 20 279 0.0 0.0 0.00 0.00 0.00 90 1014.2
20260901081555 20 279 0.0 4.8 0.00 0.00 0.00 90 1014.1
20260901074552 20 278 0.0 0.0 0.00 0.00 0.00 89 1014.3
20260901073050 20 279 0.0 0.0 0.00 0.00 0.00 89 1014.4
20260901071549 20 279 0.0 6.4 0.00 0.00 0.00 89 1014.3
20260901070049 20 278 3.2 8.0 0.00 0.00 0.00 89 1014.3
20260901064544 20 278 0.0 0.0 0.00 0.00 0.00 89 1014.1
20260901063051 20 279 0.0 0.0 0.00 0.00 0.00 89 1014.0
20260901061543 20 279 0.0 11.3 0.00 0.00 0.00 88 1013.9
20260901060041 20 288 0.0 8.0 0.00 0.00 0.00 88 1013.8
20260901054540 20 284 4.8 11.3 0.00 0.00 0.00 88 1013.7
20260901053040 20 296 4.8 12.9 0.00 0.00 0.00 88 1013.7
20260901051539 20 280 1.6 11.3 0.00 0.00 0.00 87 1013.7
20260901050038 20 291 0.0 12.9 0.00 0.00 0.00 87 1013.5
20260901044538 21 288 3.2 12.9 0.00 0.00 0.00 87 1013.4
20260901043038 21 267 6.4 12.9 0.00 0.00 0.00 87 1013.4
20260901041537 21 286 3.2 12.9 0.00 0.00 0.00 86 1013.4
20260901040040 21 302 4.8 16.1 0.00 0.00 0.00 86 1013.2
20260901034539 21 289 0.0 11.3 0.00 0.00 0.00 85 1012.9
20260901033035 21 283 3.2 12.9 0.00 0.00 0.00 85 1012.5
20260901031537 21 281 4.8 11.3 0.00 0.00 0.00 86 1012.5
20260901030034 21 259 9.7 17.7 0.00 0.00 0.00 85 1012.2
20260901024534 21 282 8.0 19.3 0.00 0.00 0.00 85 1012.1
20260901023033 21 296 9.7 17.7 0.00 0.00 0.00 84 1012.1
20260901021533 22 269 12.9 25.7 0.00 0.00 0.00 84 1012.0
20260901020031 22 277 16.1 27.4 0.00 0.00 0.00 82 1012.0
20260901014531 22 283 17.7 29.0 0.00 0.00 0.00 81 1011.9
20260901013031 23 284 9.7 27.4 0.00 0.00 0.00 82 1012.0
20260901011529 23 262 12.9 25.7 0.00 0.00 0.00 81 1012.1
20260901010037 24 265 12.9 22.5 0.00 0.00 0.00 79 1012.1
20260901004526 24 279 16.1 25.7 0.00 0.00 0.00 79 1012.2
20260901003025 24 272 17.7 30.6 0.00 0.00 0.00 79 1012.3
20260901001626 25 281 14.5 29.0 0.00 0.00 0.00 78 1012.3
20260901000032 25 219 16.1 25.7 0.00 0.00 0.00 78 1012.5
20260831234520 25 273 14.5 29.0 0.00 0.00 0.00 77 1012.4
20260831233019 26 207 11.3 20.9 0.00 0.00 0.00 74 1012.4
20260831231519 26 269 12.9 20.9 0.00 0.00 0.00 73 1012.5
20260831230018 26 219 9.7 22.5 0.00 0.00 0.00 74 1012.6
20260831224518 26 227 12.9 20.9 0.00 0.00 0.00 74 1012.7
20260831223023 26 221 9.7 24.1 0.00 0.00 0.00 75 1012.8
20260831221520 26 259 8.0 19.3 0.00 0.00 0.00 75 1013.0
20260831220016 26 243 6.4 19.3 0.00 0.00 0.00 75 1013.0
20260831214515 26 234 9.7 19.3 0.00 0.00 0.00 74 1013.1
20260831213015 26 264 12.9 22.5 0.00 0.00 0.00 75 1013.3
20260831211515 26 261 11.3 22.5 0.00 0.00 0.00 75 1013.5
20260831210028 26 313 11.3 22.5 0.00 0.00 0.00 75 1013.6
20260831204513 26 194 11.3 22.5 0.00 0.00 0.00 75 1013.6
20260831203012 26 235 9.7 17.7 0.00 0.00 0.00 75 1013.6
20260831201511 26 223 9.7 19.3 0.00 0.00 0.00 75 1013.6
20260831200009 26 238 9.7 22.5 0.00 0.00 0.00 75 1013.7
20260831194508 26 260 8.0 20.9 0.00 0.00 0.00 75 1013.6
20260831193019 26 262 8.0 19.3 0.00 0.00 0.00 76 1013.6
20260831191506 26 269 6.4 14.5 0.00 0.00 0.00 76 1013.7
20260831190005 27 270 8.0 20.9 0.00 0.00 0.00 75 1013.9
20260831184504 27 238 11.3 16.1 0.00 0.00 0.00 74 1013.9
20260831183006 27 230 6.4 14.5 0.00 0.00 0.00 74 1013.9
20260831181502 27 262 4.8 12.9 0.00 0.00 0.00 75 1013.9
20260831180104 26 229 4.8 11.3 0.00 0.00 0.00 75 1013.9
20260831174556 26 264 1.6 12.9 0.00 0.00 0.00 77 1013.8
20260831173100 26 263 6.4 16.1 0.00 0.00 0.00 77 1013.9
20260831171556 26 217 4.8 16.1 0.00 0.00 0.00 78 1013.8
20260831170052 26 225 1.6 12.9 0.00 0.00 0.00 77 1013.6
20260831164605 25 228 1.6 12.9 0.00 0.00 0.00 79 1013.5
20260831163045 25 161 1.6 11.3 0.00 0.00 0.00 81 1013.4
20260831161557 24 275 0.0 4.8 0.00 0.00 0.00 83 1013.4
20260831160042 23 275 0.0 6.4 0.00 0.00 0.00 84 1013.4
20260831154533 23 281 0.0 6.4 0.00 0.00 0.00 86 1013.3
20260831153029 22 281 0.0 4.8 0.00 0.00 0.00 88 1013.3
20260831151527 22 281 0.0 0.0 0.00 0.00 0.00 90 1013.2
20260831150023 21 281 0.0 0.0 0.00 0.00 0.00 91 1013.2
20260831144521 21 281 0.0 0.0 0.00 0.00 0.00 93 1013.1
20260831143020 21 281 0.0 0.0 0.00 0.00 0.00 94 1012.9
20260831141518 20 281 0.0 0.0 0.00 0.00 0.00 93 1012.7